User: anonymous   Login
Location: Unspecified
(0.0000°N, 0.0000°E)
Time: 18:12:07
(UTC+00:00)
Language:

STARLINK-4060 - Orbit

View from above orbital plane
View from above orbital plane
View from above satellite
View from above satellite

Ground track
Ground track

The orbit is defined by the following mean orbital elements,

1 53267U          26145.42300918 +.00000000 +00000-0 +24340-3 0 00007
2 53267  53.2122 209.6538 0001327 100.1278 259.9864 15.08820252    01
Epoch (UTC): 25 May 2026 10:09:07
Eccentricity: 0.0001327
inclination: 53.2122°
perigee height: 539 km
apogee height: 541 km
right ascension of ascending node: 209.6538°
argument of perigee: 100.1278°
revolutions per day: 15.08820252
mean anomaly at epoch: 259.9864°

The dashed part of the orbit path shows where the satellite is in the earth's shadow,  

DLR